Zurück zum Katalog

STARLINK-32660

AktivKommunikationVLEO
NORAD 62205·PAYLOAD·🇺🇸 United States

Gestartet Dec 4, 2024 von Cape Canaveral Space Force Station

Loading…

Nächste Überflüge (nächste 24 Stunden)

TLE

AktuellSource: CelesTrak SupGP

Epoche: Sep 14, 2026, 15:29 UTC

1 62205C 24229P   26257.64562500 -.00012382  00000+0 -44848-3 0  2579
2 62205  43.0000 269.4016 0001545 276.2245  75.7027 15.27582743    18

Verfolge STARLINK-32660 in Echtzeit mit AllMySat

Download on the App Store